Weather in Pravoberezhnoye

Russia / Chechen Republic     43°31′24″N   45°42′38″E
temp.,
°C
wind,
m/s
gust,
m/s
humid.,
%
clouds,
%
prec.,
mm/h
press.,
hPa
HPBL,
m
20 april, tue
tue2000:00+15ne2353100 0.0 1015133
03:00+12ene2263100 0.0 101342
06:00+13e3668100 0.0 1011165
09:00+18e5854100 0.0 1009430
12:00+25e7839100 0.0 1005694
15:00+27e4438100 0.0 1004608
18:00+20ene356196 0.0 1005128
21:00+16nw3576100 0.1 1008110
21 april, wed
wed2100:00+16w5990100 0.9 1011392
03:00+15w61176100 1.0 1013535
06:00+14wnw5968100 0.0 1016731
09:00+15wnw566299 0.0 1018887
12:00+18nnw664631 0.0 10181312
15:00+16n5556100 0.2 1018990
18:00+15n356194 0.2 1019261
21:00+14ne2266100 0.3 102274
22 april, thu
thu2200:00+14nw116898 0.0 102143
03:00+13nnw1268100 0.0 102156
06:00+13n1167100 0.0 102160
09:00+14n346099 0.0 1022637
12:00+16n5560100 0.0 10231314
15:00+15ne336195 0.1 10221033
18:00+14nne2265100 0.0 1022108
21:00+13n2364100 0.0 1022127
23 april, fri
fri2300:00+12nnw3574100 0.0 1021334
03:00+10nw3696100 2.2 1021314
06:00+10nw3694100 0.9 1022359
09:00+10w4790100 2.7 1023445
12:00+12w4676100 1.2 1023643
15:00+17w335265 1.2 10211260
18:00+16n23600 0.0 102183
21:00+12ese00691 0.0 102211
24 april, sat
sat2400:00+11s117399 0.0 102011
03:00+11s117591 0.0 101911
06:00+11ese1275100 0.0 102026
09:00+16ene235794 0.0 1020587
12:00+20e444483 0.0 10191548
15:00+21e54425 0.0 10181738
18:00+17e68535 0.0 1019349
21:00+12e3470100 0.0 102088